EA1RCC-1 Weather Reports


time (UTC)temp
C
wind
direction
speed
KPH
gust
KPH
rain 1hr
cm
rain 24hr
cm
rain mn
cm
humidity
%
barometer
mb
20260508071238 10 260 8.0 0.0 0.00 0.00 0.00 18 1009.0
20260508070237 10 260 8.0 0.0 0.00 0.00 0.00 18 1009.0
20260508065236 11 260 8.0 0.0 0.00 0.00 0.00 18 1009.0
20260508064235 11 110 4.8 0.0 0.00 0.00 0.00 18 1009.0
20260508063235 11 110 4.8 0.0 0.00 0.00 0.00 18 1009.0
20260508062232 11 110 4.8 0.0 0.00 0.00 0.00 18 1008.0
20260508061231 11 110 4.8 0.0 0.00 0.00 0.00 18 1008.0
20260508060231 11 110 4.8 0.0 0.00 0.00 0.00 18 1008.0
20260508054018 11 90 4.8 0.0 0.00 0.00 0.00 18 1008.0
20260508053017 11 90 4.8 0.0 0.00 0.00 0.00 18 1008.0
20260508052016 6 90 4.8 0.0 0.00 0.00 0.00 87 1008.0
20260508045804 7 80 4.8 0.0 0.00 0.00 0.00 87 1008.0
20260508044802 7 80 4.8 0.0 0.00 0.00 0.00 87 1008.0
20260508043802 8 80 4.8 0.0 0.00 0.00 0.00 87 1008.0
20260508042800 6 80 4.8 0.0 0.00 0.00 0.00 87 1008.0
20260508041759 6 80 4.8 0.0 0.00 0.00 0.00 87 1008.0
20260508040758 7 230 3.2 0.0 0.00 0.00 0.00 87 1008.0
20260508035757 7 230 3.2 0.0 0.00 0.00 0.00 87 1008.0
20260508034756 8 230 3.2 0.0 0.00 0.00 0.00 87 1008.0
20260508033754 6 260 1.6 0.0 0.00 0.00 0.00 93 1008.0
20260508032753 6 260 1.6 0.0 0.00 0.00 0.00 93 1008.0
20260508030540 7 260 3.2 0.0 0.00 0.00 0.00 93 1008.0
20260508025538 7 260 3.2 0.0 0.00 0.00 0.00 93 1008.0
20260508024537 5 260 3.2 0.0 0.00 0.00 0.00 93 1008.0
20260508023537 6 250 1.6 0.0 0.00 0.00 0.00 93 1008.0
20260508022536 6 250 1.6 0.0 0.00 0.00 0.00 93 1008.0
20260508021535 5 0 3.2 0.0 0.00 0.00 0.00 87 1008.0
20260508020534 6 0 3.2 0.0 0.00 0.00 0.00 87 1008.0
20260508015533 6 0 3.2 0.0 0.00 0.00 0.00 87 1008.0
20260508014532 7 0 3.2 0.0 0.00 0.00 0.00 87 1009.0
20260508013532 7 0 3.2 0.0 0.00 0.00 0.00 87 1008.0
20260508012531 8 0 3.2 0.0 0.00 0.00 0.00 87 1009.0
20260508010320 6 120 9.7 0.0 0.00 0.00 0.00 81 1009.0
20260508004106 6 130 6.4 0.0 0.00 0.00 0.00 81 1009.0
20260508003106 7 130 6.4 0.0 0.00 0.00 0.00 81 1010.0
20260508002105 7 130 6.4 0.0 0.00 0.00 0.00 81 1010.0
20260508001104 8 140 3.2 0.0 0.00 0.00 0.00 81 1010.0
20260507235102 7 160 6.4 0.0 0.00 0.00 0.00 81 1010.0
20260507234101 7 160 6.4 0.0 0.00 0.00 0.00 81 1010.0
20260507233059 8 160 6.4 0.0 0.00 0.00 0.00 81 1010.0
20260507232057 8 160 6.4 0.0 0.00 0.00 0.00 81 1010.0
20260507231056 9 0 1.6 0.0 0.00 0.00 0.00 81 1010.0
20260507230054 7 110 8.0 0.0 0.00 0.00 0.00 76 1010.0
20260507225052 7 110 8.0 0.0 0.00 0.00 0.00 76 1010.0
20260507224051 8 110 8.0 0.0 0.00 0.00 0.00 76 1010.0
20260507223050 8 110 8.0 0.0 0.00 0.00 0.00 76 1010.0
20260507220839 9 110 8.0 0.0 0.00 0.00 0.00 76 1010.0
20260507214625 10 110 8.0 0.0 0.00 0.00 0.00 76 1010.0
20260507213624 10 110 6.4 0.0 0.00 0.00 0.00 76 1010.0
20260507212623 8 110 6.4 0.0 0.00 0.00 0.00 76 1010.0
20260507211621 9 110 6.4 0.0 0.00 0.00 0.00 76 1010.0
20260507210620 10 100 6.4 0.0 0.00 0.00 0.00 76 1010.0
20260507205619 10 100 6.4 0.0 0.00 0.00 0.00 76 1010.0
20260507204618 8 50 12.9 0.0 0.00 0.00 0.00 10 1010.0
20260507203616 9 50 12.9 0.0 0.00 0.00 0.00 10 1010.0
20260507202615 10 50 12.9 0.0 0.00 0.00 0.00 10 1009.0
20260507201614 10 50 12.9 0.0 0.00 0.00 0.00 10 1009.0
20260507200612 11 50 12.9 0.0 0.00 0.00 0.00 10 1009.0
20260507194359 11 50 12.9 0.0 0.00 0.00 0.00 10 1009.0
20260507193357 12 50 12.9 0.0 0.00 0.00 0.00 10 1009.0
20260507191142 12 50 14.5 0.0 0.00 0.00 0.00 10 1008.0
20260507190139 13 50 14.5 0.0 0.00 0.00 0.00 10 1008.0
20260507185138 13 50 14.5 0.0 0.00 0.00 0.00 10 1008.0
20260507184136 14 0 1.6 0.0 0.00 0.00 0.00 10 1008.0
20260507183135 15 0 1.6 0.0 0.00 0.00 0.00 10 1008.0
20260507182134 15 0 1.6 0.0 0.00 0.00 0.00 10 1007.0
20260507181134 16 0 1.6 0.0 0.00 0.00 0.00 10 1007.0
20260507180133 16 0 1.6 0.0 0.00 0.00 0.00 10 1007.0
20260507175132 17 0 1.6 0.0 0.00 0.00 0.00 10 1007.0
20260507174131 17 0 1.6 0.0 0.00 0.00 0.00 10 1007.0
20260507173130 17 0 1.6 0.0 0.00 0.00 0.00 10 1007.0
20260507172130 17 0 1.6 0.0 0.00 0.00 0.00 10 1007.0
20260507171128 13 310 17.7 0.0 0.00 0.00 0.00 11 1007.0
20260507170127 14 310 17.7 0.0 0.00 0.00 0.00 11 1007.0
20260507165125 15 310 17.7 0.0 0.00 0.00 0.00 11 1007.0
20260507162908 15 310 17.7 0.0 0.00 0.00 0.00 11 1007.0
20260507161908 16 310 17.7 0.0 0.00 0.00 0.00 11 1007.0
20260507155657 16 310 17.7 0.0 0.00 0.00 0.00 11 1007.0
20260507154656 15 310 17.7 0.0 0.00 0.00 0.00 12 1007.0
20260507153653 15 310 17.7 0.0 0.00 0.00 0.00 12 1007.0
20260507151438 15 310 17.7 0.0 0.00 0.00 0.00 12 1008.0
20260507150437 15 310 17.7 0.0 0.00 0.00 0.00 12 1008.0
20260507145435 15 310 17.7 0.0 0.00 0.00 0.00 12 1008.0
20260507144434 15 310 17.7 0.0 0.00 0.00 0.00 12 1008.0
20260507143432 15 310 17.7 0.0 0.00 0.00 0.00 12 1008.0
20260507142431 15 310 17.7 0.0 0.00 0.00 0.00 12 1008.0
20260507140218 15 310 17.7 0.0 0.00 0.00 0.00 12 1008.0
20260507135218 15 310 17.7 0.0 0.00 0.00 0.00 12 1008.0
20260507133005 15 310 17.7 0.0 0.00 0.00 0.00 12 1008.0
20260507132004 15 310 17.7 0.0 0.00 0.00 0.00 12 1009.0
20260507131003 15 310 17.7 0.0 0.00 0.00 0.00 12 1009.0
20260507124751 15 330 17.7 0.0 0.00 0.00 0.00 12 1009.0
20260507122536 15 330 19.3 0.0 0.00 0.00 0.00 12 1009.0
20260507115110 15 310 19.3 0.0 0.00 0.00 0.00 12 1009.0
20260507114109 15 0 0.0 0.0 0.00 0.00 0.00 12 1009.0
20260507113107 15 0 0.0 0.0 0.00 0.00 0.00 12 1009.0
20260507112106 14 0 0.0 0.0 0.00 0.00 0.00 12 1010.0
20260507111104 15 0 0.0 0.0 0.00 0.00 0.00 12 1010.0
20260507100001 15 90 4.8 0.0 0.00 0.00 0.00 12 1010.0
20260507095000 14 90 4.8 0.0 0.00 0.00 0.00 12 1010.0
20260507093959 13 90 4.8 0.0 0.00 0.00 0.00 12 1010.0
20260507092958 13 90 4.8 0.0 0.00 0.00 0.00 12 1010.0
20260507091956 12 90 4.8 0.0 0.00 0.00 0.00 12 1010.0
20260507090955 12 90 4.8 0.0 0.00 0.00 0.00 12 1010.0
20260507084742 12 90 4.8 0.0 0.00 0.00 0.00 12 1010.0
20260507083741 12 90 4.8 0.0 0.00 0.00 0.00 12 1010.0
20260507082740 12 90 4.8 0.0 0.00 0.00 0.00 12 1010.0
20260507081738 12 90 4.8 0.0 0.00 0.00 0.00 12 1010.0
20260507080737 12 128 4.8 8.0 0.00 0.00 0.00 12 1010.0
20260507075736 12 128 4.8 8.0 0.00 0.00 0.00 12 1010.0
20260507074735 12 0 0.0 0.0 0.00 0.00 0.00 12 1010.0
20260507073734 12 0 0.0 0.0 0.00 0.00 0.00 12 1010.0